"Pseudo-MPEC" for P12oG7Q

Created 2026 Jul 28 21:35:08 UT using Find_Orb

Click here for an explanation of pseudo-MPECs

 
 Astrometry: 
     P12oG7Q*0C2026 07 26.58416100 49 34.475-26 15 24.44   ~7QFZ 20.65wXNEOCPF51
     P12oG7Q 0C2026 07 26.59414400 49 36.281-26 14 47.07   ~7QFZ 20.79wXNEOCPF51
     P12oG7Q 0C2026 07 26.60410100 49 38.092-26 14 09.65   ~7QFZ 20.45wXNEOCPF51
     P12oG7Q 0C2026 07 26.61432400 49 39.918-26 13 30.75   ~7QH5       VNEOCPF51

Station data:
(F51) Pan-STARRS 1, Haleakala  (N20.707234 W156.255910)  US/Hawaii.
   Observers J. Herman, T. Lowe, P. Minguez, A. Schultz, I. Smith. Measurers
   K. Chambers, T. de Boer, J. Fairlamb, H. Gao, M. Huber, C.-C. Lin, E.
   Magnier, Y. Ramanjooloo, R. Wainscoat, R. Weryk. 1.8-m Ritchey-Chrétien +
   CCD.

Orbital elements:  P12oG7Q
   Perihelion 2026 Sep 9.745596 +/- 28.1 TT = 17:53:39.4 (JD 2461293.245596)
Epoch 2026 Jul 27.0 TT = JDT 2461248.5   Earth MOID: 0.0003   Ve: 0.0081
M 359.908024296 +/- 39              (J2000 ecliptic)             AutoNEOCP
n   0.002055525 +/-                 Peri.   98.348856 +/- 60
a  61.26148256 +/-                  Node   310.418272 +/- 36
e   0.99288915 +/- 0.225            Incl.   88.078687 +/- 26
P 479.49188                H 21.98  G  0.15   U 11.0  SR
q 0.435620882 +/- 0.315    Q 122.0873442 +/- 26.5
From 4 observations 2026 July 26 (43.4 min); mean residual 0".10
Residuals in arcseconds: 
260726 F51  .07-  .04+    260726 F51  .19+  .11-    
260726 F51  .01+  .01-    260726 F51  .13-  .07+    

Ephemerides (geocentric):
Date (UTC) HH   RA             Dec           delta  r     elong  mag " sig PA
---- --------  ------------   ------------  ------ ------ -----  --- --------
2026 07 28 22  01 01 07.044   -22 23 05.96  .11815 1.0747 117.3 19.6  29d 114
2026 07 28 23  01 01 25.796   -22 16 30.28  .11695 1.0739 117.3 19.5  30d 114
2026 07 29 00  01 01 44.896   -22 09 46.34  .11576 1.0732 117.2 19.5  31d 114
2026 07 29 01  01 02 04.353   -22 02 53.87  .11457 1.0724 117.1 19.5  32d 114
2026 07 29 02  01 02 24.179   -21 55 52.60  .11338 1.0717 117.1 19.5  33d 114
2026 07 29 03  01 02 44.383   -21 48 42.27  .11219 1.0709 117.0 19.5  34d 114
2026 07 29 04  01 03 04.977   -21 41 22.57  .11100 1.0702 116.9 19.4  35d 114
2026 07 29 05  01 03 25.974   -21 33 53.20  .10981 1.0694 116.9 19.4  35d 114
2026 07 29 06  01 03 47.384   -21 26 13.85  .10862 1.0687 116.8 19.4  36d 114
2026 07 29 07  01 04 09.221   -21 18 24.19  .10743 1.0679 116.7 19.4  37d 114
2026 07 29 08  01 04 31.497   -21 10 23.88  .10625 1.0672 116.7 19.3  37d 114
2026 07 29 09  01 04 54.226   -21 02 12.56  .10506 1.0664 116.6 19.3  38d 114
2026 07 29 10  01 05 17.424   -20 53 49.86  .10388 1.0657 116.5 19.3  39d 114
2026 07 29 11  01 05 41.103   -20 45 15.38  .10269 1.0649 116.4 19.3  40d 115
2026 07 29 12  01 06 05.280   -20 36 28.71  .10151 1.0642 116.3 19.3  41d 115
2026 07 29 13  01 06 29.971   -20 27 29.44  .10033 1.0634 116.2 19.2  42d 115
2026 07 29 14  01 06 55.193   -20 18 17.10  .09915 1.0627 116.1 19.2  43d 114
2026 07 29 15  01 07 20.962   -20 08 51.25  .09797 1.0619 116.1 19.2  44d 114
2026 07 29 16  01 07 47.299   -19 59 11.38  .09679 1.0612 116.0 19.2  45d 113
2026 07 29 17  01 08 14.220   -19 49 16.99  .09561 1.0604 115.9 19.1  46d 113
2026 07 29 18  01 08 41.747   -19 39 07.54  .09443 1.0597 115.7 19.1  46d 113
2026 07 29 19  01 09 09.900   -19 28 42.47  .09326 1.0589 115.6 19.1  47d 112
2026 07 29 20  01 09 38.702   -19 18 01.19  .09208 1.0582 115.5 19.1  47d 112
2026 07 29 21  01 10 08.174   -19 07 03.07  .09091 1.0574 115.4 19.0  48d 112
2026 07 29 22  01 10 38.341   -18 55 47.48  .08974 1.0567 115.3 19.0  48d 112
2026 07 29 23  01 11 09.227   -18 44 13.73  .08857 1.0559 115.2 19.0  48d 112
2026 07 30 00  01 11 40.859   -18 32 21.11  .08740 1.0552 115.0 19.0  49d 111
2026 07 30 01  01 12 13.265   -18 20 08.85  .08623 1.0544 114.9 18.9  49d 111
2026 07 30 02  01 12 46.473   -18 07 36.18  .08506 1.0537 114.8 18.9  49d 111
2026 07 30 03  01 13 20.512   -17 54 42.25  .08390 1.0529 114.6 18.9  50d 111
2026 07 30 04  01 13 55.416   -17 41 26.19  .08274 1.0522 114.5 18.9  50d 111
2026 07 30 05  01 14 31.217   -17 27 47.08  .08158 1.0514 114.3 18.8  50d 111
2026 07 30 06  01 15 07.950   -17 13 43.95  .08042 1.0506 114.2 18.8  51d 111
2026 07 30 07  01 15 45.652   -16 59 15.76  .07926 1.0499 114.0 18.8  51d 111
2026 07 30 08  01 16 24.362   -16 44 21.44  .07810 1.0491 113.8 18.8  51d 110
2026 07 30 09  01 17 04.121   -16 28 59.85  .07695 1.0484 113.6 18.7  52d 110
2026 07 30 10  01 17 44.971   -16 13 09.78  .07580 1.0476 113.5 18.7  52d 110
2026 07 30 11  01 18 26.958   -15 56 49.95  .07465 1.0469 113.3 18.7  52d 110
2026 07 30 12  01 19 10.130   -15 39 59.02  .07350 1.0461 113.1 18.7  52d 110
2026 07 30 13  01 19 54.536   -15 22 35.57  .07236 1.0454 112.9 18.6  53d 110
2026 07 30 14  01 20 40.232   -15 04 38.09  .07122 1.0446 112.7 18.6  53d 109
2026 07 30 15  01 21 27.272   -14 46 04.99  .07008 1.0439 112.4 18.6  53d 109
2026 07 30 16  01 22 15.716   -14 26 54.56  .06894 1.0431 112.2 18.5  53d 109
2026 07 30 17  01 23 05.628   -14 07 05.04  .06781 1.0424 112.0 18.5  53d 109
2026 07 30 18  01 23 57.075   -13 46 34.52  .06668 1.0416 111.7 18.5  53d 109
2026 07 30 19  01 24 50.126   -13 25 20.98  .06556 1.0409 111.4 18.5  54d 109
2026 07 30 20  01 25 44.859   -13 03 22.30  .06443 1.0401 111.2 18.4  54d 109
2026 07 30 21  01 26 41.351   -12 40 36.20  .06331 1.0394 110.9 18.4  54d 109